Location: Appleton
(44.2618°N, 88.4157°W)
Time: 19:54:38
(UTC+00:00)

deb Explorer IX - Visible Passes

Search period start: 28 February 2021 00:00
Search period end: 10 March 2021 00:00
Orbit: 537 x 1102 km, 38.8° (Epoch: 28 February)

Date Brightness Start Highest point End Pass type
(mag) Time Alt. Az. Time Alt. Az. Time Alt. Az.
28 Feb ? 09:26:08 12° ESE 09:26:08 12° ESE 09:26:41 10° ESE visible
28 Feb ? 11:07:23 23° SW 11:09:29 40° S 11:13:52 10° ESE visible
01 Mar ? 10:44:54 34° SSW 10:45:49 39° S 10:50:04 10° ESE visible
02 Mar ? 10:22:24 38° SSE 10:22:24 38° SSE 10:26:16 10° ESE visible
03 Mar ? 09:59:53 29° SE 09:59:53 29° SE 10:02:30 10° ESE visible
03 Mar ? 11:41:09 11° WSW 11:44:45 33° SSW 11:48:55 10° SE visible
04 Mar ? 09:37:24 18° ESE 09:37:24 18° ESE 09:38:46 10° ESE visible
04 Mar ? 11:18:39 18° WSW 11:21:05 32° SSW 11:25:05 10° SE visible
05 Mar ? 09:14:56 11° ESE 09:14:56 11° ESE 09:15:02 10° ESE visible
05 Mar ? 10:56:11 26° SW 10:57:24 31° SSW 11:01:17 10° SE visible
06 Mar ? 10:33:45 31° SSW 10:33:45 31° SSW 10:37:30 10° SE visible
07 Mar ? 10:11:22 25° SSE 10:11:22 25° SSE 10:13:45 10° SE visible
08 Mar ? 09:49:02 15° SE 09:49:02 15° SE 09:50:01 10° SE visible
08 Mar ? 11:30:46 10° SW 11:32:22 12° SSW 11:33:58 10° S visible
09 Mar ? 11:08:02 11° SW 11:08:39 12° SSW 11:10:06 10° S visible
